MST,Max TemperatureF,Mean TemperatureF,Min TemperatureF,Max Dew PointF,MeanDew PointF,Min DewpointF,Max Humidity, Mean Humidity, Min Humidity, Max Sea Level PressureIn, Mean Sea Level PressureIn, Min Sea Level PressureIn, Max VisibilityMiles, Mean VisibilityMiles, Min VisibilityMiles, Max Wind SpeedMPH, Mean Wind SpeedMPH, Max Gust SpeedMPH,PrecipitationIn, CloudCover, Events, WindDirDegrees
2014-2-1,55,47,37,35,31,25,71,53,35,29.95,29.83,29.75,10,10,10,24,10,31,0.00,4,,254
2014-2-2,54,44,34,25,16,10,62,36,19,30.07,29.99,29.94,10,10,10,14,6,,0.00,1,,235
2014-2-3,53,43,33,34,19,0,87,47,11,29.92,29.85,29.73,10,10,7,24,9,34,0.01,5,Rain,263
2014-2-4,51,40,28,28,24,21,93,57,30,30.07,30.01,29.89,10,10,10,17,8,22,0.00,2,,270
2014-2-5,59,47,35,25,22,10,60,44,16,30.04,29.99,29.87,10,10,10,16,5,25,0.01,5,Rain,191
2014-2-6,55,45,35,28,21,14,60,42,20,30.04,29.97,29.92,10,10,10,22,5,29,0.00,6,,212
2014-2-7,60,50,39,34,26,19,81,48,23,30.14,30.04,29.92,10,10,10,15,9,24,0.00,5,Rain,284
2014-2-8,66,52,37,24,21,15,52,33,14,30.21,30.15,30.11,10,10,10,16,5,21,0.00,0,,246
2014-2-9,73,58,44,31,26,22,47,33,15,30.14,30.07,29.99,10,10,10,23,8,29,0.00,0,,277
2014-2-10,71,58,44,28,24,19,46,30,14,30.03,29.95,29.85,10,10,10,25,9,32,0.00,4,,265
2014-2-11,66,55,44,30,25,16,57,35,15,30.08,29.98,29.89,10,10,10,14,8,,0.00,3,,276
2014-2-12,69,55,41,21,14,1,39,23,8,30.14,30.07,30.01,10,10,10,14,8,,0.00,2,,246
2014-2-13,75,60,44,21,17,10,37,21,8,30.10,30.04,29.98,10,10,10,15,8,22,0.00,2,,275
2014-2-14,80,65,50,21,17,9,32,19,7,30.10,30.03,29.98,10,10,10,13,8,17,0.00,1,,257
2014-2-15,82,66,50,19,14,3,29,16,5,30.07,30.02,29.97,10,10,10,40,7,72,0.00,0,,229
2014-2-16,79,66,52,16,12,2,23,14,5,30.05,30.00,29.95,10,10,10,15,7,23,0.00,0,,263
2014-2-17,79,66,53,18,12,4,23,14,6,30.09,30.01,29.93,10,10,10,14,8,17,0.00,0,,215
2014-2-18,78,63,48,16,13,5,27,15,6,30.01,29.95,29.89,10,10,10,18,7,26,0.00,4,,247
2014-2-19,73,60,46,16,12,0,29,17,5,29.91,29.86,29.80,10,10,10,20,8,26,0.00,6,,260
2014-2-20,68,54,39,18,10,1,39,18,7,30.06,29.99,29.88,10,10,10,14,8,18,0.00,3,,283
2014-2-21,73,58,42,7,2,-17,21,13,4,30.05,29.97,29.88,10,10,10,17,7,22,0.00,6,,256
2014-2-22,73,58,44,6,-2,-14,20,10,4,29.96,29.91,29.84,10,10,10,21,6,28,0.00,0,,250
2014-2-23,70,60,51,29,13,0,31,17,9,30.03,29.97,29.91,10,10,10,14,2,,0.00,3,,236
2014-2-24,73,60,48,25,22,18,37,23,12,30.03,29.96,29.88,10,10,10,13,5,,0.00,6,,214
2014-2-25,69,61,53,34,25,18,44,29,14,30.01,29.95,29.67,10,10,10,24,7,30,0.00,8,,241
2014-2-26,71,58,46,36,29,21,62,36,15,30.03,29.96,29.89,10,10,10,18,8,23,0.00,3,,258
2014-2-27,71,58,44,30,28,25,53,34,19,30.07,29.91,29.83,10,10,10,25,9,33,0.00,3,,264
2014-2-28,73,60,48,32,28,23,50,31,15,29.92,29.87,29.82,10,10,10,22,7,32,0.00,4,,229